Year,Month,Day,Hour,Minute,Value (Times are PST for temperature in C)
2012,08,07,00,00,19.20
2012,08,07,00,01,19.20
2012,08,07,00,02,19.20
2012,08,07,00,03,19.30
2012,08,07,00,04,19.30
2012,08,07,00,05,19.30
2012,08,07,00,06,19.30
2012,08,07,00,07,19.40
2012,08,07,00,08,19.40
2012,08,07,00,09,19.40
2012,08,07,00,10,19.50
2012,08,07,00,11,19.50
2012,08,07,00,12,19.60
2012,08,07,00,13,19.60
2012,08,07,00,14,19.70
2012,08,07,00,15,19.70
2012,08,07,00,16,19.80
2012,08,07,00,17,19.80
2012,08,07,00,18,19.90
2012,08,07,00,19,19.90
2012,08,07,00,20,20.00
2012,08,07,00,21,20.00
2012,08,07,00,22,20.10
2012,08,07,00,23,20.10
2012,08,07,00,24,20.10
2012,08,07,00,25,20.10
2012,08,07,00,26,20.10
2012,08,07,00,27,20.10
2012,08,07,00,28,20.10
2012,08,07,00,29,20.10
2012,08,07,00,30,20.00
2012,08,07,00,31,20.00
2012,08,07,00,32,20.00
2012,08,07,00,33,19.90
2012,08,07,00,34,19.90
2012,08,07,00,35,19.90
2012,08,07,00,36,19.90
2012,08,07,00,37,19.90
2012,08,07,00,38,19.80
2012,08,07,00,39,19.80
2012,08,07,00,40,19.80
2012,08,07,00,41,19.80
2012,08,07,00,42,19.70
2012,08,07,00,43,19.70
2012,08,07,00,44,19.70
2012,08,07,00,45,19.70
2012,08,07,00,46,19.70
2012,08,07,00,47,19.70
2012,08,07,00,48,19.60
2012,08,07,00,49,19.60
2012,08,07,00,50,19.60
2012,08,07,00,51,19.60
2012,08,07,00,52,19.60
2012,08,07,00,53,19.60
2012,08,07,00,54,19.60
2012,08,07,00,55,19.60
2012,08,07,00,56,19.60
2012,08,07,00,57,19.60
2012,08,07,00,58,19.60
2012,08,07,00,59,19.60
2012,08,07,01,00,19.60
2012,08,07,01,01,19.50
2012,08,07,01,02,19.50
2012,08,07,01,03,19.50
2012,08,07,01,04,19.50
2012,08,07,01,05,19.50
2012,08,07,01,06,19.40
2012,08,07,01,07,19.40
2012,08,07,01,08,19.40
2012,08,07,01,09,19.40
2012,08,07,01,10,19.30
2012,08,07,01,11,19.30
2012,08,07,01,12,19.30
2012,08,07,01,13,19.30
2012,08,07,01,14,19.30
2012,08,07,01,15,19.20
2012,08,07,01,16,19.20
2012,08,07,01,17,19.20
2012,08,07,01,18,19.20
2012,08,07,01,19,19.20
2012,08,07,01,20,19.20
2012,08,07,01,21,19.10
2012,08,07,01,22,19.10
2012,08,07,01,23,19.10
2012,08,07,01,24,19.10
2012,08,07,01,25,19.00
2012,08,07,01,26,19.00
2012,08,07,01,27,19.00
2012,08,07,01,28,18.90
2012,08,07,01,29,18.90
2012,08,07,01,30,18.90
2012,08,07,01,31,18.80
2012,08,07,01,32,18.80
2012,08,07,01,33,18.80
2012,08,07,01,34,18.80
2012,08,07,01,35,18.80
2012,08,07,01,36,18.80
2012,08,07,01,37,18.80
2012,08,07,01,38,18.80
2012,08,07,01,39,18.80
2012,08,07,01,40,18.80
2012,08,07,01,41,18.80
2012,08,07,01,42,18.80
2012,08,07,01,43,18.70
2012,08,07,01,44,18.80
2012,08,07,01,45,18.70
2012,08,07,01,46,18.80
2012,08,07,01,47,18.80
2012,08,07,01,48,18.80
2012,08,07,01,49,18.80
2012,08,07,01,50,18.80
2012,08,07,01,51,18.80
2012,08,07,01,52,18.80
2012,08,07,01,53,18.90
2012,08,07,01,54,18.90
2012,08,07,01,55,18.90
2012,08,07,01,56,18.90
2012,08,07,01,57,18.90
2012,08,07,01,58,18.80
2012,08,07,01,59,18.80
2012,08,07,02,00,18.80
2012,08,07,02,01,18.80
2012,08,07,02,02,18.80
2012,08,07,02,03,18.80
2012,08,07,02,04,18.70
2012,08,07,02,05,18.70
2012,08,07,02,06,18.70
2012,08,07,02,07,18.60
2012,08,07,02,08,18.60
2012,08,07,02,09,18.60
2012,08,07,02,10,18.50
2012,08,07,02,11,18.50
2012,08,07,02,12,18.50
2012,08,07,02,13,18.40
2012,08,07,02,14,18.40
2012,08,07,02,15,18.40
2012,08,07,02,16,18.40
2012,08,07,02,17,18.40
2012,08,07,02,18,18.30
2012,08,07,02,19,18.30
2012,08,07,02,20,18.30
2012,08,07,02,21,18.30
2012,08,07,02,22,18.30
2012,08,07,02,23,18.30
2012,08,07,02,24,18.20
2012,08,07,02,25,18.20
2012,08,07,02,26,18.20
2012,08,07,02,27,18.20
2012,08,07,02,28,18.20
2012,08,07,02,29,18.20
2012,08,07,02,30,18.20
2012,08,07,02,31,18.20
2012,08,07,02,32,18.20
2012,08,07,02,33,18.10
2012,08,07,02,34,18.10
2012,08,07,02,35,18.10
2012,08,07,02,36,18.10
2012,08,07,02,37,18.10
2012,08,07,02,38,18.10
2012,08,07,02,39,18.10
2012,08,07,02,40,18.10
2012,08,07,02,41,18.00
2012,08,07,02,42,18.00
2012,08,07,02,43,18.00
2012,08,07,02,44,18.00
2012,08,07,02,45,18.00
2012,08,07,02,46,18.00
2012,08,07,02,47,17.90
2012,08,07,02,48,17.90
2012,08,07,02,49,17.90
2012,08,07,02,50,17.90
2012,08,07,02,51,17.90
2012,08,07,02,52,17.90
2012,08,07,02,53,17.90
2012,08,07,02,54,17.90
2012,08,07,02,55,17.80
2012,08,07,02,56,17.80
2012,08,07,02,57,17.80
2012,08,07,02,58,17.80
2012,08,07,02,59,17.80
2012,08,07,03,00,17.80
2012,08,07,03,01,17.80
2012,08,07,03,02,17.80
2012,08,07,03,06,17.70
2012,08,07,03,07,17.70
2012,08,07,03,08,17.70
2012,08,07,03,09,17.70
2012,08,07,03,10,17.70
2012,08,07,03,11,17.70
2012,08,07,03,12,17.70
2012,08,07,03,13,17.70
2012,08,07,03,14,17.70
2012,08,07,03,15,17.70
2012,08,07,03,16,17.70
2012,08,07,03,17,17.70
2012,08,07,03,18,17.70
2012,08,07,03,19,17.80
2012,08,07,03,20,17.80
2012,08,07,03,21,17.80
2012,08,07,03,22,17.80
2012,08,07,03,23,17.80
2012,08,07,03,24,17.80
2012,08,07,03,25,17.80
2012,08,07,03,26,17.80
2012,08,07,03,27,17.80
2012,08,07,03,28,17.70
2012,08,07,03,29,17.70
2012,08,07,03,30,17.70
2012,08,07,03,31,17.70
2012,08,07,03,32,17.70
2012,08,07,03,33,17.70
2012,08,07,03,34,17.70
2012,08,07,03,35,17.60
2012,08,07,03,36,17.60
2012,08,07,03,37,17.60
2012,08,07,03,38,17.60
2012,08,07,03,39,17.60
2012,08,07,03,40,17.60
2012,08,07,03,41,17.60
2012,08,07,03,42,17.60
2012,08,07,03,43,17.60
2012,08,07,03,44,17.60
2012,08,07,03,45,17.60
2012,08,07,03,46,17.60
2012,08,07,03,47,17.50
2012,08,07,03,48,17.50
2012,08,07,03,49,17.50
2012,08,07,03,50,17.50
2012,08,07,03,51,17.40
2012,08,07,03,52,17.40
2012,08,07,03,53,17.40
2012,08,07,03,54,17.40
2012,08,07,03,55,17.40
2012,08,07,03,56,17.40
2012,08,07,03,57,17.40
2012,08,07,03,58,17.30
2012,08,07,03,59,17.30
2012,08,07,04,00,17.30
2012,08,07,04,01,17.30
2012,08,07,04,02,17.30
2012,08,07,04,03,17.30
2012,08,07,04,04,17.30
2012,08,07,04,05,17.30
2012,08,07,04,06,17.30
2012,08,07,04,07,17.30
2012,08,07,04,08,17.30
2012,08,07,04,09,17.30
2012,08,07,04,10,17.30
2012,08,07,04,11,17.30
2012,08,07,04,12,17.30
2012,08,07,04,13,17.30
2012,08,07,04,14,17.30
2012,08,07,04,15,17.30
2012,08,07,04,16,17.30
2012,08,07,04,17,17.30
2012,08,07,04,18,17.30
2012,08,07,04,19,17.30
2012,08,07,04,20,17.30
2012,08,07,04,21,17.30
2012,08,07,04,22,17.30
2012,08,07,04,23,17.30
2012,08,07,04,24,17.30
2012,08,07,04,25,17.20
2012,08,07,04,26,17.20
2012,08,07,04,27,17.20
2012,08,07,04,28,17.20
2012,08,07,04,29,17.20
2012,08,07,04,30,17.20
2012,08,07,04,31,17.20
2012,08,07,04,32,17.20
2012,08,07,04,33,17.20
2012,08,07,04,34,17.20
2012,08,07,04,35,17.20
2012,08,07,04,36,17.20
2012,08,07,04,37,17.20
2012,08,07,04,38,17.20
2012,08,07,04,39,17.20
2012,08,07,04,40,17.30
2012,08,07,04,41,17.30
2012,08,07,04,42,17.30
2012,08,07,04,43,17.30
2012,08,07,04,44,17.30
2012,08,07,04,45,17.30
2012,08,07,04,46,17.30
2012,08,07,04,47,17.30
2012,08,07,04,48,17.30
2012,08,07,04,49,17.30
2012,08,07,04,50,17.30
2012,08,07,04,51,17.30
2012,08,07,04,52,17.30
2012,08,07,04,53,17.30
2012,08,07,04,54,17.30
2012,08,07,04,55,17.30
2012,08,07,04,56,17.30
2012,08,07,04,57,17.30
2012,08,07,04,58,17.30
2012,08,07,04,59,17.30
2012,08,07,05,00,17.30
2012,08,07,05,01,17.30
2012,08,07,05,02,17.30
2012,08,07,05,03,17.30
2012,08,07,05,04,17.30
2012,08,07,05,05,17.40
2012,08,07,05,06,17.40
2012,08,07,05,07,17.40
2012,08,07,05,08,17.40
2012,08,07,05,09,17.40
2012,08,07,05,10,17.40
2012,08,07,05,11,17.40
2012,08,07,05,12,17.40
2012,08,07,05,13,17.40
2012,08,07,05,14,17.40
2012,08,07,05,15,17.40
2012,08,07,05,16,17.40
2012,08,07,05,17,17.40
2012,08,07,05,18,17.40
2012,08,07,05,19,17.40
2012,08,07,05,20,17.40
2012,08,07,05,21,17.40
2012,08,07,05,22,17.30
2012,08,07,05,23,17.30
2012,08,07,05,24,17.30
2012,08,07,05,25,17.30
2012,08,07,05,26,17.30
2012,08,07,05,27,17.30
2012,08,07,05,28,17.30
2012,08,07,05,29,17.30
2012,08,07,05,30,17.30
2012,08,07,05,31,17.20
2012,08,07,05,32,17.20
2012,08,07,05,33,17.20
2012,08,07,05,34,17.20
2012,08,07,05,35,17.20
2012,08,07,05,36,17.20
2012,08,07,05,37,17.20
2012,08,07,05,38,17.30
2012,08,07,05,39,17.30
2012,08,07,05,40,17.30
2012,08,07,05,41,17.30
2012,08,07,05,42,17.30
2012,08,07,05,43,17.30
2012,08,07,05,44,17.30
2012,08,07,05,45,17.30
2012,08,07,05,46,17.30
2012,08,07,05,47,17.30
2012,08,07,05,48,17.30
2012,08,07,05,49,17.30
2012,08,07,05,50,17.30
2012,08,07,05,51,17.30
2012,08,07,05,52,17.30
2012,08,07,05,53,17.40
2012,08,07,05,54,17.40
2012,08,07,05,55,17.40
2012,08,07,05,56,17.40
2012,08,07,05,57,17.40
2012,08,07,05,58,17.40
2012,08,07,05,59,17.40
2012,08,07,06,00,17.40
2012,08,07,06,01,17.40
2012,08,07,06,02,17.40
2012,08,07,06,03,17.40
2012,08,07,06,04,17.40
2012,08,07,06,05,17.40
2012,08,07,06,06,17.40
2012,08,07,06,07,17.30
2012,08,07,06,08,17.30
2012,08,07,06,09,17.30
2012,08,07,06,10,17.30
2012,08,07,06,11,17.30
2012,08,07,06,12,17.30
2012,08,07,06,13,17.30
2012,08,07,06,14,17.30
2012,08,07,06,15,17.40
2012,08,07,06,16,17.40
2012,08,07,06,17,17.40
2012,08,07,06,18,17.40
2012,08,07,06,19,17.40
2012,08,07,06,20,17.40
2012,08,07,06,21,17.40
2012,08,07,06,22,17.40
2012,08,07,06,23,17.40
2012,08,07,06,24,17.50
2012,08,07,06,25,17.50
2012,08,07,06,26,17.50
2012,08,07,06,27,17.60
2012,08,07,06,28,17.60
2012,08,07,06,29,17.60
2012,08,07,06,30,17.60
2012,08,07,06,31,17.70
2012,08,07,06,32,17.70
2012,08,07,06,33,17.70
2012,08,07,06,34,17.80
2012,08,07,06,35,17.80
2012,08,07,06,36,17.80
2012,08,07,06,37,17.80
2012,08,07,06,38,17.80
2012,08,07,06,39,17.90
2012,08,07,06,40,17.90
2012,08,07,06,41,17.90
2012,08,07,06,42,18.00
2012,08,07,06,43,18.00
2012,08,07,06,44,18.00
2012,08,07,06,45,18.10
2012,08,07,06,46,18.10
2012,08,07,06,47,18.10
2012,08,07,06,48,18.20
2012,08,07,06,49,18.20
2012,08,07,06,50,18.20
2012,08,07,06,51,18.30
2012,08,07,06,52,18.30
2012,08,07,06,53,18.30
2012,08,07,06,54,18.30
2012,08,07,06,55,18.30
2012,08,07,06,56,18.40
2012,08,07,06,57,18.40
2012,08,07,06,58,18.40
2012,08,07,06,59,18.40
2012,08,07,07,00,18.40
2012,08,07,07,01,18.40
2012,08,07,07,02,18.40
2012,08,07,07,03,18.40
2012,08,07,07,04,18.40
2012,08,07,07,05,18.40
2012,08,07,07,06,18.50
2012,08,07,07,07,18.50
2012,08,07,07,08,18.50
2012,08,07,07,09,18.50
2012,08,07,07,10,18.50
2012,08,07,07,11,18.50
2012,08,07,07,12,18.50
2012,08,07,07,13,18.60
2012,08,07,07,14,18.60
2012,08,07,07,15,18.60
2012,08,07,07,16,18.60
2012,08,07,07,17,18.60
2012,08,07,07,18,18.60
2012,08,07,07,19,18.70
2012,08,07,07,20,18.70
2012,08,07,07,21,18.70
2012,08,07,07,22,18.70
2012,08,07,07,23,18.70
2012,08,07,07,24,18.70
2012,08,07,07,25,18.70
2012,08,07,07,26,18.70
2012,08,07,07,27,18.70
2012,08,07,07,28,18.70
2012,08,07,07,29,18.70
2012,08,07,07,30,18.70
2012,08,07,07,31,18.70
2012,08,07,07,32,18.70
2012,08,07,07,33,18.70
2012,08,07,07,34,18.70
2012,08,07,07,35,18.70
2012,08,07,07,36,18.70
2012,08,07,07,37,18.70
2012,08,07,07,38,18.80
2012,08,07,07,39,18.80
2012,08,07,07,40,18.80
2012,08,07,07,41,18.80
2012,08,07,07,42,18.80
2012,08,07,07,43,18.80
2012,08,07,07,44,18.80
2012,08,07,07,45,18.80
2012,08,07,07,46,18.80
2012,08,07,07,47,18.80
2012,08,07,07,48,18.90
2012,08,07,07,49,18.90
2012,08,07,07,50,18.90
2012,08,07,07,51,18.90
2012,08,07,07,52,18.90
2012,08,07,07,53,19.00
2012,08,07,07,54,19.00
2012,08,07,07,55,19.10
2012,08,07,07,56,19.10
2012,08,07,07,57,19.20
2012,08,07,07,58,19.20
2012,08,07,07,59,19.30
2012,08,07,08,00,19.30
2012,08,07,08,01,19.30
2012,08,07,08,02,19.30
2012,08,07,08,03,19.40
2012,08,07,08,04,19.40
2012,08,07,08,05,19.40
2012,08,07,08,06,19.50
2012,08,07,08,07,19.50
2012,08,07,08,08,19.60
2012,08,07,08,09,19.70
2012,08,07,08,10,19.80
2012,08,07,08,11,19.80
2012,08,07,08,12,19.90
2012,08,07,08,13,20.00
2012,08,07,08,14,20.00
2012,08,07,08,15,20.10
2012,08,07,08,16,20.20
2012,08,07,08,17,20.30
2012,08,07,08,18,20.30
2012,08,07,08,19,20.40
2012,08,07,08,20,20.40
2012,08,07,08,21,20.50
2012,08,07,08,22,20.60
2012,08,07,08,23,20.60
2012,08,07,08,24,20.60
2012,08,07,08,25,20.70
2012,08,07,08,26,20.70
2012,08,07,08,27,20.80
2012,08,07,08,28,20.80
2012,08,07,08,29,20.80
2012,08,07,08,30,20.90
2012,08,07,08,31,20.90
2012,08,07,08,32,20.90
2012,08,07,08,33,21.00
2012,08,07,08,34,21.00
2012,08,07,08,35,21.10
2012,08,07,08,36,21.10
2012,08,07,08,37,21.20
2012,08,07,08,38,21.20
2012,08,07,08,39,21.20
2012,08,07,08,40,21.20
2012,08,07,08,41,21.20
2012,08,07,08,42,21.20
2012,08,07,08,43,21.20
2012,08,07,08,44,21.20
2012,08,07,08,45,21.30
2012,08,07,08,46,21.30
2012,08,07,08,47,21.30
2012,08,07,08,48,21.30
2012,08,07,08,49,21.40
2012,08,07,08,50,21.40
2012,08,07,08,51,21.40
2012,08,07,08,52,21.40
2012,08,07,08,53,21.40
2012,08,07,08,54,21.40
2012,08,07,08,55,21.30
2012,08,07,08,56,21.30
2012,08,07,08,57,21.30
2012,08,07,08,58,21.40
2012,08,07,08,59,21.40
2012,08,07,09,00,21.40
2012,08,07,09,01,21.40
2012,08,07,09,02,21.40
2012,08,07,09,03,21.40
2012,08,07,09,04,21.40
2012,08,07,09,05,21.40
2012,08,07,09,06,21.50
2012,08,07,09,07,21.50
2012,08,07,09,08,21.50
2012,08,07,09,09,21.60
2012,08,07,09,10,21.60
2012,08,07,09,11,21.60
2012,08,07,09,12,21.70
2012,08,07,09,13,21.70
2012,08,07,09,14,21.70
2012,08,07,09,15,21.70
2012,08,07,09,16,21.70
2012,08,07,09,17,21.70
2012,08,07,09,18,21.60
2012,08,07,09,19,21.60
2012,08,07,09,20,21.60
2012,08,07,09,21,21.60
2012,08,07,09,22,21.50
2012,08,07,09,23,21.50
2012,08,07,09,24,21.50
2012,08,07,09,25,21.40
2012,08,07,09,26,21.40
2012,08,07,09,27,21.40
2012,08,07,09,28,21.40
2012,08,07,09,29,21.30
2012,08,07,09,30,21.30
2012,08,07,09,31,21.30
2012,08,07,09,32,21.30
2012,08,07,09,33,21.30
2012,08,07,09,34,21.30
2012,08,07,09,35,21.40
2012,08,07,09,36,21.40
2012,08,07,09,37,21.40
2012,08,07,09,38,21.50
2012,08,07,09,39,21.60
2012,08,07,09,40,21.60
2012,08,07,09,41,21.70
2012,08,07,09,42,21.70
2012,08,07,09,43,21.80
2012,08,07,09,44,21.80
2012,08,07,09,45,21.80
2012,08,07,09,46,21.90
2012,08,07,09,47,22.00
2012,08,07,09,48,22.00
2012,08,07,09,49,22.10
2012,08,07,09,50,22.10
2012,08,07,09,51,22.10
2012,08,07,09,52,22.20
2012,08,07,09,53,22.20
2012,08,07,09,54,22.20
2012,08,07,09,55,22.20
2012,08,07,09,56,22.30
2012,08,07,09,57,22.30
2012,08,07,09,58,22.30
2012,08,07,09,59,22.40
2012,08,07,10,00,22.40
2012,08,07,10,01,22.40
2012,08,07,10,02,22.50
2012,08,07,10,03,22.60
2012,08,07,10,04,22.60
2012,08,07,10,05,22.50
2012,08,07,10,06,22.40
2012,08,07,10,07,22.30
2012,08,07,10,08,22.20
2012,08,07,10,09,22.10
2012,08,07,10,10,21.90
2012,08,07,10,11,21.80
2012,08,07,10,12,21.70
2012,08,07,10,13,21.60
2012,08,07,10,14,21.50
2012,08,07,10,15,21.40
2012,08,07,10,16,21.40
2012,08,07,10,17,21.40
2012,08,07,10,18,21.40
2012,08,07,10,19,21.40
2012,08,07,10,20,21.30
2012,08,07,10,21,21.30
2012,08,07,10,22,21.30
2012,08,07,10,23,21.30
2012,08,07,10,24,21.30
2012,08,07,10,25,21.30
2012,08,07,10,26,21.30
2012,08,07,10,27,21.30
2012,08,07,10,28,21.40
2012,08,07,10,29,21.40
2012,08,07,10,30,21.50
2012,08,07,10,31,21.50
2012,08,07,10,32,21.60
2012,08,07,10,33,21.60
2012,08,07,10,34,21.60
2012,08,07,10,35,21.60
2012,08,07,10,36,21.60
2012,08,07,10,37,21.60
2012,08,07,10,38,21.50
2012,08,07,10,39,21.40
2012,08,07,10,40,21.30
2012,08,07,10,41,21.30
2012,08,07,10,42,21.30
2012,08,07,10,43,21.30
2012,08,07,10,44,21.30
2012,08,07,10,45,21.30
2012,08,07,10,46,21.30
2012,08,07,10,47,21.30
2012,08,07,10,48,21.40
2012,08,07,10,49,21.40
2012,08,07,10,50,21.30
2012,08,07,10,51,21.30
2012,08,07,10,52,21.20
2012,08,07,10,53,21.20
2012,08,07,10,54,21.20
2012,08,07,10,55,21.20
2012,08,07,10,56,21.30
2012,08,07,10,57,21.30
2012,08,07,10,58,21.30
2012,08,07,10,59,21.40
2012,08,07,11,00,21.40
2012,08,07,11,01,21.50
2012,08,07,11,02,21.70
2012,08,07,11,03,21.80
2012,08,07,11,04,21.80
2012,08,07,11,05,22.00
2012,08,07,11,06,22.00
2012,08,07,11,07,22.20
2012,08,07,11,08,22.30
2012,08,07,11,09,22.40
2012,08,07,11,10,22.50
2012,08,07,11,11,22.50
2012,08,07,11,12,22.60
2012,08,07,11,13,22.50
2012,08,07,11,14,22.40
2012,08,07,11,15,22.30
2012,08,07,11,16,22.20
2012,08,07,11,17,22.00
2012,08,07,11,18,21.90
2012,08,07,11,19,21.80
2012,08,07,11,20,21.70
2012,08,07,11,21,21.60
2012,08,07,11,22,21.50
2012,08,07,11,23,21.50
2012,08,07,11,24,21.40
2012,08,07,11,25,21.40
2012,08,07,11,26,21.30
2012,08,07,11,27,21.20
2012,08,07,11,28,21.20
2012,08,07,11,29,21.10
2012,08,07,11,30,21.10
2012,08,07,11,31,21.00
2012,08,07,11,32,21.00
2012,08,07,11,33,20.90
2012,08,07,11,34,20.90
2012,08,07,11,35,20.80
2012,08,07,11,36,20.80
2012,08,07,11,37,20.80
2012,08,07,11,38,20.80
2012,08,07,11,39,20.80
2012,08,07,11,40,20.80
2012,08,07,11,41,20.90
2012,08,07,11,42,20.90
2012,08,07,11,43,21.10
2012,08,07,11,44,21.10
2012,08,07,11,45,21.20
2012,08,07,11,46,21.30
2012,08,07,11,47,21.30
2012,08,07,11,48,21.30
2012,08,07,11,49,21.40
2012,08,07,11,50,21.40
2012,08,07,11,51,21.40
2012,08,07,11,52,21.40
2012,08,07,11,53,21.40
2012,08,07,11,54,21.40
2012,08,07,11,55,21.50
2012,08,07,11,56,21.60
2012,08,07,11,57,21.60
2012,08,07,11,58,21.70
2012,08,07,11,59,21.80
2012,08,07,12,00,21.80
2012,08,07,12,01,21.90
2012,08,07,12,02,22.00
2012,08,07,12,03,22.00
2012,08,07,12,04,22.10
2012,08,07,12,05,22.10
2012,08,07,12,06,22.10
2012,08,07,12,07,22.10
2012,08,07,12,08,22.00
2012,08,07,12,09,22.00
2012,08,07,12,10,21.90
2012,08,07,12,11,21.80
2012,08,07,12,12,21.80
2012,08,07,12,13,21.70
2012,08,07,12,14,21.70
2012,08,07,12,15,21.70
2012,08,07,12,16,21.70
2012,08,07,12,17,21.70
2012,08,07,12,18,21.70
2012,08,07,12,19,21.70
2012,08,07,12,20,21.60
2012,08,07,12,21,21.60
2012,08,07,12,22,21.60
2012,08,07,12,23,21.50
2012,08,07,12,24,21.60
2012,08,07,12,25,21.60
2012,08,07,12,26,21.70
2012,08,07,12,27,21.70
2012,08,07,12,28,21.80
2012,08,07,12,29,21.80
2012,08,07,12,30,21.90
2012,08,07,12,31,21.90
2012,08,07,12,32,22.00
2012,08,07,12,33,22.10
2012,08,07,12,34,22.00
2012,08,07,12,35,21.90
2012,08,07,12,36,21.70
2012,08,07,12,37,21.50
2012,08,07,12,38,21.30
2012,08,07,12,39,21.10
2012,08,07,12,40,21.00
2012,08,07,12,41,21.00
2012,08,07,12,42,21.10
2012,08,07,12,43,21.10
2012,08,07,12,44,21.20
2012,08,07,12,45,21.20
2012,08,07,12,46,21.20
2012,08,07,12,47,21.20
2012,08,07,12,48,21.20
2012,08,07,12,49,21.30
2012,08,07,12,50,21.30
2012,08,07,12,51,21.30
2012,08,07,12,52,21.40
2012,08,07,12,53,21.50
2012,08,07,12,54,21.50
2012,08,07,12,55,21.60
2012,08,07,12,56,21.70
2012,08,07,12,57,21.70
2012,08,07,12,58,21.80
2012,08,07,12,59,21.80
2012,08,07,13,00,21.80
2012,08,07,13,01,21.80
2012,08,07,13,02,21.90
2012,08,07,13,03,21.90
2012,08,07,13,04,21.90
2012,08,07,13,05,21.90
2012,08,07,13,06,21.90
2012,08,07,13,07,21.90
2012,08,07,13,08,21.80
2012,08,07,13,09,21.80
2012,08,07,13,10,21.70
2012,08,07,13,11,21.70
2012,08,07,13,12,21.70
2012,08,07,13,13,21.60
2012,08,07,13,14,21.60
2012,08,07,13,15,21.60
2012,08,07,13,16,21.60
2012,08,07,13,17,21.60
2012,08,07,13,18,21.60
2012,08,07,13,19,21.60
2012,08,07,13,20,21.60
2012,08,07,13,21,21.60
2012,08,07,13,22,21.70
2012,08,07,13,23,21.70
2012,08,07,13,24,21.70
2012,08,07,13,25,21.70
2012,08,07,13,26,21.70
2012,08,07,13,27,21.70
2012,08,07,13,28,21.70
2012,08,07,13,29,21.70
2012,08,07,13,30,21.60
2012,08,07,13,31,21.60
2012,08,07,13,32,21.60
2012,08,07,13,33,21.60
2012,08,07,13,34,21.60
2012,08,07,13,35,21.70
2012,08,07,13,36,21.70
2012,08,07,13,37,21.70
2012,08,07,13,38,21.80
2012,08,07,13,39,21.80
2012,08,07,13,40,21.80
2012,08,07,13,41,21.90
2012,08,07,13,42,21.90
2012,08,07,13,43,21.90
2012,08,07,13,44,21.90
2012,08,07,13,45,21.90
2012,08,07,13,46,21.90
2012,08,07,13,47,21.90
2012,08,07,13,48,21.80
2012,08,07,13,49,21.80
2012,08,07,13,50,21.80
2012,08,07,13,51,21.80
2012,08,07,13,52,21.80
2012,08,07,13,53,21.80
2012,08,07,13,54,21.80
2012,08,07,13,55,21.80
2012,08,07,13,56,21.80
2012,08,07,13,57,21.80
2012,08,07,13,58,21.70
2012,08,07,13,59,21.70
2012,08,07,14,00,21.70
2012,08,07,14,01,21.70
2012,08,07,14,02,21.70
2012,08,07,14,03,21.70
2012,08,07,14,04,21.70
2012,08,07,14,05,21.70
2012,08,07,14,06,21.70
2012,08,07,14,07,21.80
2012,08,07,14,08,21.80
2012,08,07,14,09,21.80
2012,08,07,14,10,21.80
2012,08,07,14,11,21.90
2012,08,07,14,12,22.00
2012,08,07,14,13,22.00
2012,08,07,14,14,22.10
2012,08,07,14,15,22.20
2012,08,07,14,16,22.20
2012,08,07,14,17,22.20
2012,08,07,14,18,22.20
2012,08,07,14,19,22.20
2012,08,07,14,20,22.30
2012,08,07,14,21,22.30
2012,08,07,14,22,22.40
2012,08,07,14,23,22.40
2012,08,07,14,24,22.40
2012,08,07,14,25,22.40
2012,08,07,14,26,22.40
2012,08,07,14,27,22.40
2012,08,07,14,28,22.40
2012,08,07,14,29,22.40
2012,08,07,14,30,22.40
2012,08,07,14,31,22.50
2012,08,07,14,32,22.50
2012,08,07,14,33,22.50
2012,08,07,14,34,22.50
2012,08,07,14,35,22.40
2012,08,07,14,36,22.40
2012,08,07,14,37,22.40
2012,08,07,14,38,22.30
2012,08,07,14,39,22.30
2012,08,07,14,40,22.30
2012,08,07,14,41,22.30
2012,08,07,14,42,22.40
2012,08,07,14,43,22.40
2012,08,07,14,44,22.40
2012,08,07,14,45,22.40
2012,08,07,14,46,22.40
2012,08,07,14,47,22.40
2012,08,07,14,48,22.40
2012,08,07,14,49,22.40
2012,08,07,14,50,22.40
2012,08,07,14,51,22.50
2012,08,07,14,52,22.50
2012,08,07,14,53,22.50
2012,08,07,14,54,22.50
2012,08,07,14,55,22.60
2012,08,07,14,56,22.60
2012,08,07,14,57,22.60
2012,08,07,14,58,22.60
2012,08,07,14,59,22.70
2012,08,07,15,00,22.60
2012,08,07,15,01,22.50
2012,08,07,15,02,22.40
2012,08,07,15,03,22.20
2012,08,07,15,04,22.10
2012,08,07,15,05,22.00
2012,08,07,15,06,21.90
2012,08,07,15,07,21.90
2012,08,07,15,08,21.90
2012,08,07,15,09,21.90
2012,08,07,15,10,21.90
2012,08,07,15,11,21.80
2012,08,07,15,12,21.80
2012,08,07,15,13,21.80
2012,08,07,15,14,21.80
2012,08,07,15,15,21.80
2012,08,07,15,16,21.80
2012,08,07,15,17,21.80
2012,08,07,15,18,21.80
2012,08,07,15,19,21.80
2012,08,07,15,20,21.90
2012,08,07,15,21,21.90
2012,08,07,15,22,21.90
2012,08,07,15,23,22.00
2012,08,07,15,24,22.00
2012,08,07,15,25,22.10
2012,08,07,15,26,22.20
2012,08,07,15,27,22.20
2012,08,07,15,28,22.30
2012,08,07,15,29,22.40
2012,08,07,15,30,22.50
2012,08,07,15,31,22.60
2012,08,07,15,32,22.70
2012,08,07,15,33,22.80
2012,08,07,15,34,22.80
2012,08,07,15,35,22.90
2012,08,07,15,36,22.90
2012,08,07,15,37,22.90
2012,08,07,15,38,22.90
2012,08,07,15,39,23.00
2012,08,07,15,40,23.00
2012,08,07,15,41,22.90
2012,08,07,15,42,22.90
2012,08,07,15,43,22.90
2012,08,07,15,44,22.90
2012,08,07,15,45,22.90
2012,08,07,15,46,23.00
2012,08,07,15,47,23.00
2012,08,07,15,48,23.10
2012,08,07,15,49,23.10
2012,08,07,15,50,23.00
2012,08,07,15,51,22.90
2012,08,07,15,52,22.80
2012,08,07,15,53,22.70
2012,08,07,15,54,22.60
2012,08,07,15,55,22.60
2012,08,07,15,56,22.60
2012,08,07,15,57,22.60
2012,08,07,15,58,22.60
2012,08,07,15,59,22.60
2012,08,07,16,00,22.60
2012,08,07,16,01,22.50
2012,08,07,16,02,22.40
2012,08,07,16,03,22.30
2012,08,07,16,04,22.30
2012,08,07,16,05,22.20
2012,08,07,16,06,22.20
2012,08,07,16,07,22.20
2012,08,07,16,08,22.30
2012,08,07,16,09,22.30
2012,08,07,16,10,22.30
2012,08,07,16,11,22.40
2012,08,07,16,12,22.50
2012,08,07,16,13,22.60
2012,08,07,16,14,22.60
2012,08,07,16,15,22.70
2012,08,07,16,16,22.80
2012,08,07,16,17,22.80
2012,08,07,16,18,22.90
2012,08,07,16,19,22.90
2012,08,07,16,20,22.90
2012,08,07,16,21,22.90
2012,08,07,16,22,22.90
2012,08,07,16,23,22.90
2012,08,07,16,24,22.90
2012,08,07,16,25,22.90
2012,08,07,16,26,22.90
2012,08,07,16,27,22.80
2012,08,07,16,28,22.80
2012,08,07,16,29,22.80
2012,08,07,16,30,22.70
2012,08,07,16,31,22.70
2012,08,07,16,32,22.70
2012,08,07,16,33,22.70
2012,08,07,16,34,22.70
2012,08,07,16,35,22.70
2012,08,07,16,36,22.70
2012,08,07,16,37,22.70
2012,08,07,16,38,22.70
2012,08,07,16,39,22.60
2012,08,07,16,40,22.60
2012,08,07,16,41,22.60
2012,08,07,16,42,22.50
2012,08,07,16,43,22.50
2012,08,07,16,44,22.40
2012,08,07,16,45,22.40
2012,08,07,16,46,22.40
2012,08,07,16,47,22.50
2012,08,07,16,48,22.50
2012,08,07,16,49,22.60
2012,08,07,16,50,22.70
2012,08,07,16,51,22.70
2012,08,07,16,52,22.70
2012,08,07,16,53,22.80
2012,08,07,16,54,22.80
2012,08,07,16,55,22.80
2012,08,07,16,56,22.80
2012,08,07,16,57,22.90
2012,08,07,16,58,22.90
2012,08,07,16,59,22.90
2012,08,07,17,00,22.90
2012,08,07,17,01,22.90
2012,08,07,17,02,22.90
2012,08,07,17,03,22.90
2012,08,07,17,04,22.90
2012,08,07,17,05,22.80
2012,08,07,17,06,22.80
2012,08,07,17,07,22.70
2012,08,07,17,08,22.70
2012,08,07,17,09,22.60
2012,08,07,17,10,22.60
2012,08,07,17,11,22.50
2012,08,07,17,12,22.40
2012,08,07,17,13,22.40
2012,08,07,17,14,22.30
2012,08,07,17,15,22.30
2012,08,07,17,16,22.20
2012,08,07,17,17,22.20
2012,08,07,17,18,22.20
2012,08,07,17,19,22.20
2012,08,07,17,20,22.10
2012,08,07,17,21,22.10
2012,08,07,17,22,22.10